Regional Weather Roundup
Issued by NWS

Home | Current Version | Previous Version | Text Only | Print | Product List | Glossary On
Versions: 1 2 3 4 5 6 7 8 9 10 11 12 13 14 15 16 17 18 19 20 21 22 23 24 25 26 27
000
ASUS45 KSLC 050210
RWRUT

UTAH REGIONAL WEATHER ROUNDUP
NATIONAL WEATHER SERVICE SALT LAKE CITY UT
800 PM MDT WED MAY 04 2016

UTZ001>011-023>025-050300-

NORTHERN UTAH

CITY           SKY/WX    TMP DP  RH WIND       PRES   REMARKS
BRIGHAM CITY   MOCLDY    74  30  19 N3        29.97F
HILL AFB       MOCLDY    71  35  26 N3        29.99S
LOGAN          MOCLDY    68  44  42 NE6       29.99S
OGDEN          MOCLDY    71  35  26 N7        29.96F
PROVO AIRPORT  NOT AVBL
SALT LAKE CITY MOCLDY    75  38  26 N10       29.94S
VERNAL         CLEAR     71  29  21 S3        30.06S
WENDOVER       MOCLDY    73  37  27 E6        29.92F
HEBER CITY     MOCLDY    61  36  39 CALM      30.03S

$$

UTZ012>022-026-027-050300-

SOUTHERN/CENTRAL UTAH

CITY           SKY/WX    TMP DP  RH WIND       PRES   REMARKS
BLANDING       CLEAR     67  28  23 SE6       30.19S
BRYCE CANYON   PTCLDY    61  24  24 SE13      30.17S
CEDAR CITY     PTCLDY    67  37  33 S6        29.99R
DELTA          PTCLDY    72  36  26 W6        29.95S
HANKSVILLE     CLEAR     77  28  16 S8        30.01F
MILFORD        PTCLDY    72  26  18 S7        29.95S
MOAB/CYNLANDS  CLEAR     76  28  17 SE6       30.00S
PRICE          PTCLDY    68  27  21 S6        30.09S
ST GEORGE      MOCLDY    84  30  14 W8        29.85R

$$

REGIONAL REPORTS     COLORADO/ARIZONA

CITY           SKY/WX    TMP DP  RH WIND       PRES   REMARKS
CRAIG, CO      CLEAR     61  37  41 W3        30.12S
GRAND JUNCTION CLEAR     71  34  25 NW5       30.05S
RIFLE          CLEAR     67  29  24 W8        30.08S
MONTROSE       CLEAR     71  29  21 CALM      30.12S
CORTEZ         CLEAR     66  28  24 SE7       30.14S
PAGE, AZ       CLEAR     80  25  13 SE7       29.94F
GRAND CANYON   PTCLDY    69  23  17 S6        30.11F
KINGMAN        PTCLDY    81  22  11 S9        29.87S
FLAGSTAFF      CLEAR     64  23  21 S5        30.16S

$$

REGIONAL REPORTS    NEVADA/IDAHO/WYOMING

CITY           SKY/WX    TMP DP  RH WIND       PRES   REMARKS
LAS VEGAS, NV  MOCLDY    89  21   8 S8        29.72F
ELY            CLOUDY    63  27  25 S13       30.01S
ELKO           MOCLDY    69  34  27 SE9       29.91F
POCATELLO, ID  CLOUDY    65  38  36 S5        30.00S
BURLEY         MOCLDY    69  32  25 S6        29.92F
EVANSTON, WY   CLOUDY    60  27  28 S7        30.13S
ROCK SPRINGS   CLOUDY    61  26  26 S14       30.14R
KEMMERER         N/A     61  23  23 S5        30.14S

$$




USA.gov is the U.S. government's official web portal to all federal, state and local government web resources and services.